Find GE 5

NORAD ID: 25516 Int'l Des: 1998-063 Owner: AMCG Country: US operational
HEOCIRCULAR

实时位置

正在加载3D地球...

关于 GE 5

正在加载描述...

即将过境

Passes for default location (London). Set your location on the main map for personalized predictions.

高度历史

Loading altitude history...

两行轨道根数

1 25516U 98063B 26120.42341678 .00000014 00000-0 00000+0 0 9995
2 25516 11.3452 40.6006 0004106 359.9837 224.5461 0.99329592100359
Epoch: Apr 30, 2026 • Age: 23 hours

当前状态

高度 36068.0 km
速度 3.06 km/s
星下点 -6.21°S, 109.51°W
发射日期 Oct 28, 1998
运行时间 27.5 years
类型 other

技术详情

分类 Payload
质量 1719.00 kg
干质量 769.00 kg
总质量 1719.00 kg
长度 2.20 m
直径 1.60 m
跨度 22.40 m
形状 Box + 2 Pan
制造商 ALC
平台类型 Spacebus 2000
阶段状态 Unknown Active Status
所有者/国家 AMCG/US

Most Searched